Volver al catálogo

COSMOS 1275 DEB

ActivoPO
NORAD 12708·DEBRIS·🇷🇺 Russia

Lanzado Jun 4, 1981 desde Plesetsk Cosmodrome

Loading…

Próximos Pases (próximas 24 horas)

TLE

ActualizadoSource: Space-Track

Época: Sep 14, 2026, 12:33 UTC

1 12708U 81053BC  26257.52297759  .00008335  00000-0  12438-2 0  9992
2 12708  82.8598 323.3678 0017622 232.7074 127.2531 14.74614452327051

Sigue COSMOS 1275 DEB en tiempo real con AllMySat

Download on the App Store